This demonstration page uses our WeatherBlox Daily Observations layout. Learn more.

Left ArrowRight Arrow

47.50024, -111.30081

Hourly Observations for March 20, 2017

Temp ( °F °C ) Dew Point ( °F °C ) Humidity (%) Winds ( mph kmh ) Pressure ( in mb ) Visibility ( mi km ) Precip ( " mm )
12:53 am 00:53 Clear 24 -4.4 14 -10 65 65 W 9 15 30.22 1023 10 16 0.00 0.00
1:53 am 01:53 Clear 27 -2.8 15 -9.4 61 61 NW 9 15 30.22 1023 10 16 0.00 0.00
2:53 am 02:53 Clear 24 -4.4 15 -9.4 68 68 NW 3 6 30.24 1024 10 16 0.00 0.00
3:53 am 03:53 Clear 25 -3.9 15 -9.4 66 66 NW 9 15 30.25 1024 10 16 0.00 0.00
4:53 am 04:53 Clear 23 -5 14 -10 68 68 NNW 6 9 30.27 1025 10 16 0.00 0.00
5:53 am 05:53 Clear 21 -6.1 14 -10 74 74 Calm 30.30 1026 10 16 0.00 0.00
6:53 am 06:53 Clear 24 -4.4 14 -10 65 65 Calm 30.33 1027 10 16 0.00 0.00
7:53 am 07:53 Sunny 20 -6.7 14 -10 78 78 W 5 7 30.38 1029 10 16 0.00 0.00
8:53 am 08:53 Sunny 29 -1.7 19 -7.2 66 66 Calm 30.38 1029 10 16 0.00 0.00
9:53 am 09:53 Sunny 34 1.1 16 -8.9 48 48 NE 7 11 30.38 1029 10 16 0.00 0.00
10:53 am 10:53 Sunny 38 3.3 10 -12.2 31 31 ENE 14 22 30.39 1029 10 16 0.00 0.00
11:53 am 11:53 Sunny 41 5 8 -13.3 25 25 NE 14 22 30.38 1029 10 16 0.00 0.00
12:53 pm 12:53 Sunny 42 5.6 5 -15 21 21 ENE 15 24 30.40 1029 10 16 0.00 0.00
1:53 pm 13:53 Sunny 44 6.7 6 -14.4 21 21 NE 16 26 30.36 1028 10 16 0.00 0.00
2:53 pm 14:53 Sunny 44 6.7 8 -13.3 23 23 ENE 18 30 30.35 1028 10 16 0.00 0.00
3:53 pm 15:53 Mostly Sunny 43 6.1 7 -13.9 22 22 NE 15 24 30.33 1027 10 16 0.00 0.00
4:53 pm 16:53 Cloudy 42 5.6 7 -13.9 23 23 NNE 15 24 30.33 1027 10 16 0.00 0.00
5:53 pm 17:53 Cloudy 41 5 8 -13.3 25 25 NE 14 22 30.34 1027 10 16 0.00 0.00
6:53 pm 18:53 Cloudy 40 4.4 10 -12.2 29 29 NE 16 26 30.33 1027 10 16 0.00 0.00
7:53 pm 19:53 Cloudy 38 3.3 13 -10.6 36 36 NE 15 24 30.35 1028 10 16 0.00 0.00
8:53 pm 20:53 Cloudy 36 2.2 14 -10 40 40 NE 14 22 30.33 1027 10 16 0.00 0.00
9:53 pm 21:53 Cloudy 36 2.2 15 -9.4 42 42 NE 16 26 30.31 1027 10 16 0.00 0.00
10:53 pm 22:53 Cloudy 36 2.2 17 -8.3 46 46 ENE 12 19 30.29 1026 10 16 0.00 0.00
11:53 pm 23:53 Cloudy 37 2.8 18 -7.8 46 46 SE 8 13 30.28 1025 10 16 0.00 0.00

Powered by AerisWeather